Location: Aubervilles
(48.9167°N, 2.3833°E)
Time: 15:27:36
(UTC+00:00)

IKONOS-2 - Pass Details

Date: 03 February 2023
Orbit: 594 x 605 km, 98.2° (Epoch: 29 March)

Event Time Altitude Azimuth Distance (km) Brightness Sun altitude
Rises 17:32:49 0° 16° (NNE) 2,882 7.7 -7.3°
Reaches altitude 10° 17:35:01 10° 19° (NNE) 1,973 6.8 -7.6°
Maximum altitude 17:39:17 68° 102° (ESE) 660 4.5 -8.3°
Drops below altitude 10° 17:43:31 10° 186° (S) 1,952 7.4 -9.0°
Sets 17:45:41 0° 189° (S) 2,849 8.3 -9.3°
